DW4547 Weather Reports


time (UTC)temp
C
wind
direction
speed
KPH
gust
KPH
rain 1hr
cm
rain 24hr
cm
rain mn
cm
humidity
%
barometer
mb
20260503211825 18 227 9.7 9.7 0.00 0.00 0.00 54 1016.9
20260503210825 18 226 6.4 9.7 0.00 0.00 0.00 52 1016.8
20260503205824 19 233 3.2 4.8 0.00 0.00 0.00 51 1016.8
20260503204826 19 229 4.8 4.8 0.00 0.00 0.00 51 1016.8
20260503185824 18 210 3.2 8.0 0.00 0.00 0.00 49 1016.8
20260503184824 18 189 3.2 8.0 0.00 0.00 0.00 49 1016.8
20260503183824 18 168 4.8 6.4 0.00 0.00 0.00 49 1016.8
20260503182825 18 168 4.8 6.4 0.00 0.00 0.00 49 1016.6
20260503172844 20 121 1.6 4.8 0.00 0.00 0.00 46 1016.5
20260503171825 20 123 0.0 4.8 0.00 0.00 0.00 45 1016.6
20260503150824 22 109 1.6 4.8 0.00 0.00 0.00 43 1016.9
20260503130823 23 114 1.6 9.7 0.00 0.00 0.00 32 1017.7
20260503033822 15 174 3.2 6.4 0.00 0.00 0.00 52 1019.4
20260503032822 15 174 4.8 6.4 0.00 0.00 0.00 53 1019.4
20260503031822 15 174 3.2 6.4 0.00 0.00 0.00 53 1019.3
20260503030822 15 174 1.6 8.0 0.00 0.00 0.00 53 1019.4
20260503025841 15 174 3.2 8.0 0.00 0.00 0.00 53 1019.5
20260503024822 15 174 4.8 8.0 0.00 0.00 0.00 53 1019.5
20260503023821 15 174 6.4 8.0 0.00 0.00 0.00 53 1019.5
20260503022821 15 173 4.8 6.4 0.00 0.00 0.00 54 1019.6
20260503021821 15 173 6.4 6.4 0.00 0.00 0.00 53 1019.6
20260503020822 15 173 3.2 8.0 0.00 0.00 0.00 54 1019.6
20260503010841 14 173 1.6 6.4 0.00 0.00 0.00 56 1020.0
20260503005822 15 173 4.8 6.4 0.00 0.00 0.00 56 1020.1
20260502230821 15 175 3.2 4.8 0.00 0.00 0.00 57 1021.0
20260502225821 15 188 0.0 4.8 0.00 0.00 0.00 57 1021.1
20260502224821 15 188 3.2 3.2 0.00 0.00 0.00 55 1021.2
20260502223821 15 191 0.0 4.8 0.00 0.00 0.00 56 1021.2
20260502222821 15 192 0.0 0.0 0.00 0.00 0.00 57 1021.3
20260502221821 15 192 0.0 0.0 0.00 0.00 0.00 57 1021.4
20260502220821 15 192 0.0 0.0 0.00 0.00 0.00 58 1021.4
20260502215821 15 192 0.0 0.0 0.00 0.00 0.00 59 1021.4
20260502214821 15 192 0.0 0.0 0.00 0.00 0.00 57 1021.5
20260502213821 15 192 0.0 4.8 0.00 0.00 0.00 57 1021.5
20260502212840 15 191 1.6 3.2 0.00 0.00 0.00 56 1021.5